Location: Bruderhein
(53.8035°N, 112.9265°W)
Time: 20:48:02
(UTC+00:00)

Gurwin Techsat 1B - Pass Details

Date: 22 April 2024
Orbit: 811 x 812 km, 98.9° (Epoch: 26 May)

Event Time Altitude Azimuth Distance (km) Brightness Sun altitude
Rises 09:35:05 0° 28° (NNE) 3,350 13.5 -18.6°
Reaches altitude 10° 09:38:40 10° 53° (NE) 2,411 12.2 -18.3°
Maximum altitude 09:41:27 14° 85° (E) 2,120 11.3 -18.1°
Drops below altitude 10° 09:44:14 10° 117° (ESE) 2,402 11.2 -17.9°
Sets 09:47:45 0° 141° (SE) 3,327 11.6 -17.6°
